Regional Weather Roundup
Issued by NWS

Home | Current Version | Previous Version | Graphics & Text | Print | Product List | Glossary Off
Versions: 1 2 3 4 5 6 7 8 9 10 11 12 13 14 15 16 17 18 19 20 21 22 23 24 25 26 27 28 29 30 31 32 33 34 35 36 37 38 39 40 41 42 43 44 45 46 47 48 49 50

000
ASUS44 KFWD 221115
RWRTX
NORTH TEXAS HOURLY WEATHER ROUNDUP
NATIONAL WEATHER SERVICE FORT WORTH TX
500 AM CST SAT NOV 22 2014

NOTE: "FAIR" INDICATES FEW OR NO CLOUDS BELOW 12,000 FEET WITH NO
SIGNIFICANT WEATHER AND/OR OBSTRUCTIONS TO VISIBILITY.

TXZ118-119-221200-
DALLAS/FORT WORTH METROPLEX

CITY           SKY/WX    TMP DP  RH WIND       PRES   REMARKS
DFW AIRPORT    CLOUDY    57  57 100 SE15      30.03F FOG
DALLAS LOVE    LGT RAIN  60  58  92 SE20      30.04F FOG
FTW MEACHAM    LGT RAIN  62  60  93 SE12      30.02F FOG
DAL-EXECUTIVE  CLOUDY    60  58  92 SE15      30.04F FOG
FTW-ALLIANCE   LGT RAIN  60  60 100 SE13      30.02F FOG
FTW-SPINKS     LGT RAIN  61  60  96 SE8       30.04F
ARLINGTON      LGT RAIN  61  58  90 SE14      30.03F FOG
GRAND PRAIRIE  CLOUDY    60  60 100 SE9       30.05F
LANCASTER      CLOUDY    59  56  89 SE13      30.07F
$$

TXZ091>094-102>105-117-120-121-131>134-221200-
NORTH CENTRAL TEXAS

CITY           SKY/WX    TMP DP  RH WIND       PRES   REMARKS
SHRMAN/DENISON CLOUDY    60  59  99 SE13      30.04F
GAINESVILLE    CLOUDY    59  58  97 S16       30.05R FOG
BOWIE          CLOUDY    58  57  96 E3        30.01S
BRIDGEPORT     DRIZZLE   61  61 100 SE10      30.02F
DECATUR        CLOUDY    60  60  98 SE12      30.01F FOG
DENTON         CLOUDY    59  59 100 SE18      30.03F FOG
MCKINNEY       CLOUDY    59  57  93 S14       30.06F
GREENVILLE     CLOUDY    59  54  82 SE9       30.08F
ROCKWALL       CLOUDY    60  57  91 S10G18    30.06F
TERRELL        CLOUDY    61  56  83 SE10      30.09S
WAXAHACHIE     CLOUDY    59  59 100 SE7       30.06F FOG
CLEBURNE       CLOUDY    63  63 100 SE12      30.04F
GRANBURY       CLOUDY    65  63  90 SE12G20   30.02F FOG
$$

TXZ083>090-098>101-113>116-127>130-139>142-154-155-221200-
WESTERN NORTH TEXAS

CITY           SKY/WX    TMP DP  RH WIND       PRES   REMARKS
WICHITA FALLS  LGT RAIN  62  60  93 S15       29.96F
WF-KICKAPOO    CLOUDY    62  62 100 S12       29.97F THUNDER
VERNON         CLOUDY    55  54  94 CALM      29.97S THUNDER VSB<1/4
ABILENE        MOCLDY    63  60  90 SE14      29.97F
ABILENE-DYESS  PTCLDY    62  59  91 SE21      29.92F
BRECKENRIDGE   MOCLDY    65  60  84 S9G18     29.97S
GRAHAM         CLOUDY    64  62  96 SE9       29.97R
MINERAL WELLS  CLOUDY    64  62  93 SE10      29.98F FOG
STEPHENVILLE   CLOUDY    64  61  88 S14       30.02F
COMANCHE       RAIN      64  64 100 S9        30.00F
BROWNWOOD      CLOUDY    64  63  94 SE12G18   29.98F
COLEMAN        CLOUDY    64  63  97 S14       29.98F
BRADY          MOCLDY    63  63 100 SE10      29.98F
$$

TXZ143>147-156>162-174-175-221200-
CENTRAL TEXAS

CITY           SKY/WX    TMP DP  RH WIND       PRES   REMARKS
WACO           CLOUDY    63  61  93 S14       30.04S
WACO-MCGREGOR  CLOUDY    63  57  82 S13       30.05S
HILLSBORO      CLOUDY    63  60  91 SE13      30.04S
CORSICANA      CLOUDY    60  55  83 SE13G23   30.08F
MEXIA          CLOUDY    60  58  95 SE10G16   30.06F
HEARNE         CLOUDY    63  61  93 SE5       30.07S
CAMERON        CLOUDY    64  62  93 SE9       30.04F
TEMPLE         CLOUDY    63  57  82 SE14      30.02F
KILLEEN        CLOUDY    63  63 100 SE15      30.01F
KILLEEN-SKYLRK CLOUDY    64  57  77 SE14G20   30.01F
FORT HOOD      CLOUDY    66  63  88 SE13G24   30.01F
GATESVILLE     CLOUDY    64  63  94 S13       30.04F
HAMILTON       CLOUDY    64  64 100 SE16G30   30.01F
LAMPASAS       CLOUDY    63  62  96 SE12      30.01S
$$

TXZ095>097-106>112-122>126-135>138-148>153-164>167-221200-
EAST TEXAS

CITY           SKY/WX    TMP DP  RH WIND       PRES   REMARKS
PARIS          CLOUDY    57  50  77 SE10      30.12S
SULPHUR SPRNGS CLOUDY    59  52  77 SE8       30.12F
MOUNT PLEASANT CLOUDY    56  53  91 SE9       30.14F
MINEOLA        CLOUDY    59  54  82 SE6       30.11F
TYLER          CLOUDY    59  52  77 SE14      30.11F
LONGVIEW       CLOUDY    57  52  83 SE8       30.13F
MARSHALL       CLOUDY    49  47  93 CALM      30.17S
ATHENS         CLOUDY    57  52  82 SE12      30.09S
PALESTINE      CLOUDY    58  55  88 SE7       30.11F
JACKSONVILLE   CLOUDY    57  53  86 SE9       30.14S
HENDERSON      CLOUDY    57  53  86 SE8       30.14S
NACOGDOCHES    CLOUDY    55  52  88 SE5       30.15S
LUFKIN         PTCLDY    58  51  78 E8        30.13F
$$

SUPPLEMENTAL OBSERVATIONS (CENTRAL)

CITY           SKY/WX    TMP DP  RH WIND       PRES   REMARKS
LAKE TEXOMA      N/A     59  55  88 SE9         N/A
PAT MAYSE LAKE   N/A     55  50  82 E9          N/A
GREENVILLE       N/A     59  54  82 SE9         N/A
CEDAR HILL       N/A     61  57  88 SE6         N/A
LAKE LIMESTONE   N/A     61  55  82 SE7         N/A
MCGREGOR         N/A     64  59  82 SE10G18     N/A
$$

SUPPLEMENTAL OBSERVATIONS (WEST)

CITY           SKY/WX    TMP DP  RH WIND       PRES   REMARKS
MILLERS CREEK    N/A     63  57  82 S8          N/A
GRANBURY         N/A     64  61  88 SE12        N/A
COMANCHE         N/A    N/A N/A N/A S12         N/A
HAMBY            N/A     63  59  88 SE13G23     N/A
IVIE RESERVOIR   N/A     64  61  88 SE8G16      N/A
COLORADO BEND    N/A     64  61  88 SE10G18     N/A
$$

SUPPLEMENTAL OBSERVATIONS (EAST)

CITY           SKY/WX    TMP DP  RH WIND       PRES   REMARKS
CLARKSVILLE      N/A     55  52  88 SE9         N/A
TEXARKANA        N/A     55  50  82 SE3         N/A
LINDEN           N/A     55  52  88 SE2         N/A
CADDO LAKE       N/A     52  50  93 N1          N/A
GILMER           N/A     57  52  82 SE7         N/A
HENDERSON        N/A     57  52  82 SE7         N/A
LUFKIN           N/A     57  52  82 MISG        N/A
N SABINE NF      N/A     54  50  87 MISG        N/A
S SABINE NF      N/A     57  52  82 W1          N/A
$$

SUPPLEMENTAL OBSERVATIONS ARE A COLLECTION OF AUTOMATED INSTRUMENTS
THAT ARE MAINTAINED BY A VARIETY OF FEDERAL AND STATE AGENCIES.
CERTAIN ELEMENTS...SUCH AS HUMIDITY VALUES AND SUSTAINED WIND
SPEEDS...MAY BE APPROXIMATED.




USA.gov is the U.S. government's official web portal to all federal, state and local government web resources and services.